When you browse on this site, cookies collect data to enhance your experience and personalize the content and advertising you see.
Visit our Privacy Policy to learn more. By continuing to use the site, you agree to this use of cookies and data.
  • Em Portugal
  • Lista de países
  • Para 7 dias
  • Temperatura da água
  • Mapas de satélite
  • Mapa do tempo
  • Widgets de tempo
  • user-avatar
    Iniciar Sessão

    Previsão horária em Wrony

    Hoje, 19 Novembro, Segunda-feira

    Tempo Temperatura Precipitação Vento Pressão Humidade
    00:00 -1°C° 0.1 mm 1 m/s 730 mmHg 78%
    01:00 0°C° 0 mm 1 m/s 730 mmHg 89%
    02:00 -2°C° 0.1 mm 2 m/s 730 mmHg 90%
    03:00 -2°C° 0.1 mm 2 m/s 729 mmHg 90%
    04:00 -2°C° 0.1 mm 2 m/s 729 mmHg 91%
    05:00 -2°C° 0.1 mm 3 m/s 729 mmHg 91%
    06:00 -2°C° 0.1 mm 4 m/s 729 mmHg 90%
    07:00 -2°C° 0.1 mm 4 m/s 729 mmHg 90%
    08:00 -2°C° 0.1 mm 5 m/s 729 mmHg 87%
    09:00 -2°C° 0.1 mm 5 m/s 729 mmHg 84%
    10:00 -1°C° 0.1 mm 5 m/s 729 mmHg 82%
    11:00 -1°C° 0 mm 5 m/s 729 mmHg 78%
    12:00 -2°C° 0 mm 6 m/s 729 mmHg 75%
    13:00 -2°C° 0 mm 6 m/s 729 mmHg 72%
    14:00 -1°C° 0 mm 5 m/s 729 mmHg 73%
    15:00 -1°C° 0 mm 5 m/s 729 mmHg 74%
    16:00 -2°C° 0 mm 5 m/s 729 mmHg 76%
    17:00 -2°C° 0 mm 5 m/s 729 mmHg 76%
    18:00 -2°C° 0 mm 5 m/s 729 mmHg 76%
    19:00 -4°C° 0 mm 6 m/s 729 mmHg 76%
    20:00 -4°C° 0 mm 5 m/s 729 mmHg 77%
    21:00 -4°C° 0 mm 5 m/s 729 mmHg 78%
    22:00 -5°C° 0 mm 5 m/s 729 mmHg 79%
    23:00 -5°C° 0 mm 5 m/s 729 mmHg 80%

    Amanhã, 20 Novembro, Terça-feira

    Tempo Temperatura Precipitação Vento Pressão Humidade
    00:00 -5°C° 0 mm 5 m/s 729 mmHg 81%
    01:00 -6°C° 0 mm 5 m/s 729 mmHg 82%
    02:00 -5°C° 0 mm 5 m/s 729 mmHg 82%
    03:00 -5°C° 0 mm 5 m/s 728 mmHg 82%
    04:00 -5°C° 0 mm 5 m/s 728 mmHg 82%
    05:00 -5°C° 0 mm 5 m/s 728 mmHg 82%
    06:00 -5°C° 0 mm 5 m/s 728 mmHg 83%
    07:00 -4°C° 0 mm 5 m/s 728 mmHg 83%
    08:00 -4°C° 0 mm 5 m/s 728 mmHg 81%
    09:00 -3°C° 0 mm 6 m/s 727 mmHg 79%
    10:00 -3°C° 0 mm 6 m/s 727 mmHg 76%
    11:00 -2°C° 0 mm 6 m/s 727 mmHg 75%
    12:00 -2°C° 0 mm 6 m/s 726 mmHg 74%
    13:00 -1°C° 0 mm 6 m/s 726 mmHg 72%
    14:00 -1°C° 0.2 mm 5 m/s 726 mmHg 75%
    15:00 -1°C° 0.2 mm 5 m/s 726 mmHg 77%
    16:00 -1°C° 0.2 mm 4 m/s 725 mmHg 80%
    17:00 -1°C° 0.3 mm 4 m/s 726 mmHg 81%
    18:00 -2°C° 0.3 mm 4 m/s 726 mmHg 82%
    19:00 -2°C° 0.3 mm 4 m/s 726 mmHg 83%
    20:00 -1°C° 0.1 mm 3 m/s 726 mmHg 84%
    21:00 -1°C° 0.1 mm 3 m/s 726 mmHg 85%
    22:00 -1°C° 0.1 mm 3 m/s 727 mmHg 87%
    23:00 -1°C° 0 mm 3 m/s 727 mmHg 88%

    Depois de amanhã, 21 Novembro, Quarta-feira

    Tempo Temperatura Precipitação Vento Pressão Humidade
    00:00 -1°C° 0 mm 2 m/s 727 mmHg 89%
    01:00 -2°C° 0 mm 2 m/s 727 mmHg 90%
    02:00 -2°C° 0 mm 2 m/s 727 mmHg 90%
    03:00 -2°C° 0 mm 2 m/s 727 mmHg 90%
    04:00 -2°C° 0 mm 2 m/s 727 mmHg 90%
    05:00 -1°C° 0 mm 2 m/s 728 mmHg 91%
    06:00 -1°C° 0 mm 2 m/s 728 mmHg 91%
    07:00 -1°C° 0 mm 2 m/s 728 mmHg 91%
    08:00 -1°C° 0 mm 3 m/s 729 mmHg 89%
    09:00 0°C° 0 mm 3 m/s 729 mmHg 87%
    10:00 0°C° 0 mm 3 m/s 729 mmHg 86%
    11:00 0°C° 0 mm 3 m/s 730 mmHg 85%
    12:00 +1°C° 0 mm 3 m/s 730 mmHg 84%
    13:00 0°C° 0 mm 4 m/s 730 mmHg 83%
    14:00 0°C° 0 mm 4 m/s 730 mmHg 84%
    15:00 -1°C° 0 mm 4 m/s 730 mmHg 85%
    16:00 -1°C° 0 mm 4 m/s 730 mmHg 87%
    17:00 -1°C° 0 mm 4 m/s 730 mmHg 87%
    18:00 -1°C° 0 mm 4 m/s 730 mmHg 87%
    19:00 -2°C° 0 mm 4 m/s 731 mmHg 87%
    20:00 -2°C° 0 mm 4 m/s 731 mmHg 88%
    21:00 -2°C° 0 mm 4 m/s 731 mmHg 88%
    22:00 -2°C° 0 mm 4 m/s 731 mmHg 88%
    23:00 -1°C° 0 mm 3 m/s 731 mmHg 88%

    22 Novembro, Quinta-feira

    Tempo Temperatura Precipitação Vento Pressão Humidade
    00:00 -1°C° 0 mm 3 m/s 731 mmHg 88%
    01:00 -2°C° 0 mm 3 m/s 731 mmHg 89%
    02:00 -2°C° 0 mm 3 m/s 731 mmHg 89%
    03:00 -2°C° 0 mm 3 m/s 731 mmHg 90%
    04:00 -4°C° 0 mm 3 m/s 731 mmHg 90%
    05:00 -4°C° 0 mm 3 m/s 731 mmHg 90%
    06:00 -3°C° 0 mm 2 m/s 731 mmHg 90%
    07:00 -3°C° 0 mm 2 m/s 732 mmHg 90%
    08:00 -2°C° 0 mm 2 m/s 732 mmHg 87%
    09:00 -1°C° 0 mm 2 m/s 732 mmHg 84%
    10:00 +1°C° 0 mm 2 m/s 733 mmHg 81%
    11:00 +1°C° 0 mm 2 m/s 733 mmHg 80%
    12:00 +2°C° 0 mm 2 m/s 733 mmHg 79%
    13:00 +3°C° 0 mm 2 m/s 733 mmHg 78%
    14:00 +2°C° 0 mm 2 m/s 733 mmHg 81%
    15:00 +1°C° 0 mm 2 m/s 733 mmHg 85%
    16:00 +1°C° 0 mm 2 m/s 733 mmHg 88%
    17:00 -1°C° 0 mm 2 m/s 733 mmHg 88%
    18:00 -1°C° 0 mm 2 m/s 733 mmHg 89%
    19:00 -1°C° 0 mm 2 m/s 733 mmHg 90%
    20:00 -1°C° 0 mm 2 m/s 734 mmHg 90%
    21:00 -1°C° 0 mm 2 m/s 734 mmHg 90%
    22:00 -1°C° 0 mm 2 m/s 734 mmHg 91%
    23:00 -1°C° 0 mm 2 m/s 734 mmHg 91%

    23 Novembro, Sexta-feira

    Tempo Temperatura Precipitação Vento Pressão Humidade
    00:00 -1°C° 0 mm 2 m/s 734 mmHg 91%
    01:00 +2°C° 0 mm 1 m/s 735 mmHg 91%
    02:00 +2°C° 0 mm 1 m/s 735 mmHg 92%
    03:00 +2°C° 0 mm 1 m/s 735 mmHg 92%
    04:00 +2°C° 0 mm 1 m/s 735 mmHg 92%
    05:00 +2°C° 0 mm 1 m/s 735 mmHg 92%
    06:00 +1°C° 0 mm 2 m/s 735 mmHg 92%
    07:00 +1°C° 0 mm 2 m/s 735 mmHg 92%
    08:00 +2°C° 0 mm 2 m/s 736 mmHg 90%
    09:00 +3°C° 0 mm 2 m/s 736 mmHg 87%
    10:00 +4°C° 0 mm 2 m/s 736 mmHg 85%
    11:00 +5°C° 0 mm 2 m/s 736 mmHg 83%
    12:00 +6°C° 0 mm 2 m/s 736 mmHg 81%
    13:00 +6°C° 0 mm 2 m/s 736 mmHg 78%
    14:00 +5°C° 0 mm 2 m/s 736 mmHg 82%
    15:00 +4°C° 0 mm 2 m/s 736 mmHg 86%
    16:00 +3°C° 0 mm 2 m/s 735 mmHg 90%
    17:00 +3°C° 0 mm 2 m/s 735 mmHg 90%
    18:00 +3°C° 0 mm 2 m/s 735 mmHg 91%
    19:00 +2°C° 0 mm 2 m/s 735 mmHg 91%
    20:00 +2°C° 0 mm 2 m/s 735 mmHg 91%
    21:00 +2°C° 0 mm 2 m/s 735 mmHg 91%
    22:00 +2°C° 0 mm 2 m/s 735 mmHg 91%
    23:00 +2°C° 0 mm 2 m/s 735 mmHg 91%

    24 Novembro, Sábado

    Tempo Temperatura Precipitação Vento Pressão Humidade
    00:00 +2°C° 0 mm 2 m/s 734 mmHg 91%
    01:00 +2°C° 0 mm 2 m/s 734 mmHg 91%
    02:00 +2°C° 0 mm 2 m/s 734 mmHg 91%
    03:00 +1°C° 0 mm 3 m/s 733 mmHg 91%
    04:00 +1°C° 0 mm 3 m/s 733 mmHg 91%
    05:00 +1°C° 0 mm 3 m/s 733 mmHg 90%
    06:00 +1°C° 0 mm 3 m/s 733 mmHg 90%
    07:00 +1°C° 0 mm 3 m/s 732 mmHg 90%
    08:00 +2°C° 0 mm 3 m/s 732 mmHg 87%
    09:00 +3°C° 0 mm 3 m/s 732 mmHg 84%
    10:00 +3°C° 0 mm 4 m/s 732 mmHg 81%
    11:00 +4°C° 0 mm 4 m/s 732 mmHg 79%
    12:00 +5°C° 0 mm 4 m/s 731 mmHg 77%
    13:00 +5°C° 0 mm 4 m/s 731 mmHg 75%
    14:00 +4°C° 0 mm 3 m/s 730 mmHg 77%
    15:00 +4°C° 0 mm 3 m/s 730 mmHg 80%
    16:00 +3°C° 0 mm 3 m/s 729 mmHg 83%
    17:00 +3°C° 0 mm 3 m/s 729 mmHg 82%
    18:00 +2°C° 0 mm 3 m/s 729 mmHg 82%
    19:00 +2°C° 0 mm 3 m/s 729 mmHg 82%
    20:00 +2°C° 0 mm 3 m/s 729 mmHg 82%
    21:00 +2°C° 0 mm 3 m/s 729 mmHg 82%
    22:00 +2°C° 0 mm 3 m/s 729 mmHg 82%
    23:00 +2°C° 0 mm 2 m/s 729 mmHg 83%
    Mostrar mais